sat.trackr.live / text

‹ back to catalog

STARLINK-3071

NORAD 49147 · 2021-082T

PAYLOAD ACTIVE UNKNOWN

§ Identity

Operator
Country
US
Launch date
2021-09-14
Launch site
AFWTR
Launch vehicle
Mass (kg)
RCS (m²)

Purposes: comms

External: N2YO · Heavens-Above · Gunter

§ Orbital elements

Epoch: 2026-09-08T18:51:52.404480Z

Period
96.11 min
Inclination
69.9991°
Eccentricity
0.0002543
Mean motion
14.98332156 rev/d
Perigee alt
570.3 km
Apogee alt
573.8 km
Semi-major
6,950.2 km
B*
3.3458e-5
RAAN
152.8056°
Arg perigee
261.4686°
Mean anomaly
98.6184°
Rev number
27,439

§ Raw data

STARLINK-30711 49147U 21082T   26251.78602320  .00000306  00000+0  33458-4 0  99972 49147  69.9991 152.8056 0002543 261.4686  98.6184 14.98332156274397

JSON: /api/v1/satellites/49147 · /tle

For live sub-satellite position, see the globe view (requires WebGL).

§ Visibility from observer

Set your observer location to see the next 7 days of passes ≥ 10°. The values pass through the URL so the page stays shareable.

No JS? Fill the form by hand. The geolocation button needs JavaScript.